Location: Faicchio
(41.2833°N, 14.4833°E)
Time: 06:39:53
(UTC+00:00)

Cosmos 1862 - Pass Details

Date: 15 June 2025
Orbit: 479 x 494 km, 82.5° (Epoch: 16 July)

Event Time Altitude Azimuth Distance (km) Brightness Sun altitude
Rises 02:49:48 0° 182° (S) 2,563 6.3 -6.7°
Reaches altitude 10° 02:51:54 10° 180° (S) 1,687 5.4 -6.4°
Maximum altitude 02:55:35 73° 96° (E) 525 3.4 -5.9°
Drops below altitude 10° 02:59:18 10° 12° (NNE) 1,705 6.7 -5.3°
Sets 03:01:26 0° 10° (N) 2,593 7.6 -5.0°
